Location: Ash Swamp
(41.5170°N, 74.6157°W)
Time: 17:04:17
(UTC+00:00)

Cosmos 1459 Rocket - Pass Details

Date: 14 July 2020
Orbit: 938 x 999 km, 83.0° (Epoch: 04 August)

Event Time Altitude Azimuth Distance (km) Brightness Sun altitude
Exits shadow 06:06:21 50° 149° (SSE) 1,191 4.1 -25.3°
Maximum altitude 06:07:48 65° 93° (E) 1,038 4.1 -25.2°
Drops below altitude 10° 06:13:52 10° 13° (NNE) 2,698 7.4 -24.9°
Sets 06:16:25 0° 11° (N) 3,657 8.4 -24.7°
